owner,sensor,date,latitude,longitude,vertical_datum,wind_speed,wind_to_direction,wind_speed_of_gust,qcFlag 
LOOP,urn:ioos:station:wmo:lopl1:1,2014-05-01T00:11:00Z,28.8850,-90.0250,10.0,5.7,306.0,7.6,'11111222,11111222,11111222' 
LOOP,urn:ioos:station:wmo:lopl1:1,2014-05-01T00:26:00Z,28.8850,-90.0250,10.0,6.0,300.0,8.1,'11111222,11111222,11111222' 
LOOP,urn:ioos:station:wmo:lopl1:1,2014-05-01T00:41:00Z,28.8850,-90.0250,10.0,3.7,268.0,5.2,'11111222,11111222,11111222' 
LOOP,urn:ioos:station:wmo:lopl1:1,2014-05-01T00:56:00Z,28.8850,-90.0250,10.0,5.1,303.0,6.1,'11111222,11111222,11111222' 
LOOP,urn:ioos:station:wmo:lopl1:1,2014-05-01T01:16:00Z,28.8850,-90.0250,10.0,5.3,314.0,6.8,'11111222,11111222,11111222' 
LOOP,urn:ioos:station:wmo:lopl1:1,2014-05-01T01:31:00Z,28.8850,-90.0250,10.0,4.5,312.0,6.9,'11111222,11111222,11111222' 
LOOP,urn:ioos:station:wmo:lopl1:1,2014-05-01T01:46:00Z,28.8850,-90.0250,10.0,3.5,326.0,5.9,'11111222,11111222,11111222' 
LOOP,urn:ioos:station:wmo:lopl1:1,2014-05-01T02:01:00Z,28.8850,-90.0250,10.0,2.7,351.0,4.1,'11111222,11111222,11111222' 
LOOP,urn:ioos:station:wmo:lopl1:1,2014-05-01T02:16:00Z,28.8850,-90.0250,10.0,7.6,8.0,8.9,'11111222,11111222,11111222' 
LOOP,urn:ioos:station:wmo:lopl1:1,2014-05-01T02:31:00Z,28.8850,-90.0250,10.0,6.9,0.0,9.3,'11111222,11111222,11111222' 
LOOP,urn:ioos:station:wmo:lopl1:1,2014-05-01T02:46:00Z,28.8850,-90.0250,10.0,5.9,339.0,8.9,'11111222,11111222,11111222' 
LOOP,urn:ioos:station:wmo:lopl1:1,2014-05-01T03:01:00Z,28.8850,-90.0250,10.0,7.5,355.0,9.4,'11111222,11111222,11111222' 
LOOP,urn:ioos:station:wmo:lopl1:1,2014-05-01T03:16:00Z,28.8850,-90.0250,10.0,7.8,355.0,9.7,'11111222,11111222,11111222' 
LOOP,urn:ioos:station:wmo:lopl1:1,2014-05-01T03:31:00Z,28.8850,-90.0250,10.0,9.0,357.0,10.5,'11111222,11111222,11111222' 
LOOP,urn:ioos:station:wmo:lopl1:1,2014-05-01T03:46:00Z,28.8850,-90.0250,10.0,9.6,2.0,12.1,'11111222,11111222,11111222' 
LOOP,urn:ioos:station:wmo:lopl1:1,2014-05-01T04:01:00Z,28.8850,-90.0250,10.0,9.7,348.0,11.9,'11111222,11111222,11111222' 
LOOP,urn:ioos:station:wmo:lopl1:1,2014-05-01T04:16:00Z,28.8850,-90.0250,10.0,10.1,359.0,12.7,'11111222,11111222,11111222' 
LOOP,urn:ioos:station:wmo:lopl1:1,2014-05-01T04:31:00Z,28.8850,-90.0250,10.0,9.0,356.0,12.2,'11111222,11111222,11111222' 
LOOP,urn:ioos:station:wmo:lopl1:1,2014-05-01T04:46:00Z,28.8850,-90.0250,10.0,8.1,334.0,9.8,'11111222,11111222,11111222' 
LOOP,urn:ioos:station:wmo:lopl1:1,2014-05-01T05:01:00Z,28.8850,-90.0250,10.0,8.0,339.0,9.3,'11111222,11111222,11111222' 
LOOP,urn:ioos:station:wmo:lopl1:1,2014-05-01T05:16:00Z,28.8850,-90.0250,10.0,8.0,338.0,9.5,'11111222,11111222,11111222' 
LOOP,urn:ioos:station:wmo:lopl1:1,2014-05-01T05:31:00Z,28.8850,-90.0250,10.0,9.2,357.0,10.8,'11111222,11111222,11111222' 
LOOP,urn:ioos:station:wmo:lopl1:1,2014-05-01T05:46:00Z,28.8850,-90.0250,10.0,6.9,337.0,9.1,'11111222,11111222,11111222' 
LOOP,urn:ioos:station:wmo:lopl1:1,2014-05-01T06:01:00Z,28.8850,-90.0250,10.0,8.1,357.0,11.0,'11111222,11111222,11111222' 
LOOP,urn:ioos:station:wmo:lopl1:1,2014-05-01T06:16:00Z,28.8850,-90.0250,10.0,10.2,2.0,12.3,'11111222,11111222,11111222' 
LOOP,urn:ioos:station:wmo:lopl1:1,2014-05-01T06:31:00Z,28.8850,-90.0250,10.0,10.4,1.0,12.3,'11111222,11111222,11111222' 
LOOP,urn:ioos:station:wmo:lopl1:1,2014-05-01T06:46:00Z,28.8850,-90.0250,10.0,9.6,355.0,11.8,'11111222,11111222,11111222' 
LOOP,urn:ioos:station:wmo:lopl1:1,2014-05-01T07:01:00Z,28.8850,-90.0250,10.0,10.8,349.0,14.1,'11111222,11111222,11111222' 
LOOP,urn:ioos:station:wmo:lopl1:1,2014-05-01T07:16:00Z,28.8850,-90.0250,10.0,9.8,349.0,12.9,'11111222,11111222,11111222' 
LOOP,urn:ioos:station:wmo:lopl1:1,2014-05-01T07:31:00Z,28.8850,-90.0250,10.0,9.4,340.0,12.6,'11111222,11111222,11111222' 
LOOP,urn:ioos:station:wmo:lopl1:1,2014-05-01T07:46:00Z,28.8850,-90.0250,10.0,9.3,341.0,11.0,'11111222,11111222,11111222' 
LOOP,urn:ioos:station:wmo:lopl1:1,2014-05-01T08:01:00Z,28.8850,-90.0250,10.0,10.7,2.0,13.6,'11111222,11111222,11111222' 
LOOP,urn:ioos:station:wmo:lopl1:1,2014-05-01T08:16:00Z,28.8850,-90.0250,10.0,12.2,14.0,14.2,'11111222,11111222,11111222' 
LOOP,urn:ioos:station:wmo:lopl1:1,2014-05-01T08:31:00Z,28.8850,-90.0250,10.0,12.6,356.0,14.6,'11111222,11111222,11111222' 
LOOP,urn:ioos:station:wmo:lopl1:1,2014-05-01T08:46:00Z,28.8850,-90.0250,10.0,13.0,4.0,15.2,'11111222,11111222,11111222' 
LOOP,urn:ioos:station:wmo:lopl1:1,2014-05-01T09:01:00Z,28.8850,-90.0250,10.0,14.8,3.0,17.0,'11111222,11111222,11111222' 
LOOP,urn:ioos:station:wmo:lopl1:1,2014-05-01T09:16:00Z,28.8850,-90.0250,10.0,14.8,3.0,16.7,'11111222,11111222,11111222' 
LOOP,urn:ioos:station:wmo:lopl1:1,2014-05-01T09:36:00Z,28.8850,-90.0250,10.0,14.8,3.0,16.8,'11111222,11111222,11111222' 
LOOP,urn:ioos:station:wmo:lopl1:1,2014-05-01T09:51:00Z,28.8850,-90.0250,10.0,13.2,3.0,16.2,'11111222,11111222,11111222' 
LOOP,urn:ioos:station:wmo:lopl1:1,2014-05-01T10:06:00Z,28.8850,-90.0250,10.0,13.4,359.0,14.5,'11111222,11111222,11111222' 
LOOP,urn:ioos:station:wmo:lopl1:1,2014-05-01T10:21:00Z,28.8850,-90.0250,10.0,14.1,358.0,16.2,'11111222,11111222,11111222' 
LOOP,urn:ioos:station:wmo:lopl1:1,2014-05-01T10:36:00Z,28.8850,-90.0250,10.0,13.7,0.0,15.6,'11111222,11111222,11111222' 
LOOP,urn:ioos:station:wmo:lopl1:1,2014-05-01T10:51:00Z,28.8850,-90.0250,10.0,13.4,358.0,15.7,'11111222,11111222,11111222' 
LOOP,urn:ioos:station:wmo:lopl1:1,2014-05-01T11:06:00Z,28.8850,-90.0250,10.0,13.2,353.0,15.4,'11111222,11111222,11111222' 
LOOP,urn:ioos:station:wmo:lopl1:1,2014-05-01T11:21:00Z,28.8850,-90.0250,10.0,13.5,357.0,15.9,'11111222,11111222,11111222' 
LOOP,urn:ioos:station:wmo:lopl1:1,2014-05-01T11:36:00Z,28.8850,-90.0250,10.0,13.5,2.0,15.2,'11111222,11111222,11111222' 
LOOP,urn:ioos:station:wmo:lopl1:1,2014-05-01T11:51:00Z,28.8850,-90.0250,10.0,12.4,2.0,14.2,'11111222,11111222,11111222' 
LOOP,urn:ioos:station:wmo:lopl1:1,2014-05-01T12:06:00Z,28.8850,-90.0250,10.0,13.5,354.0,15.7,'11111222,11111222,11111222' 
LOOP,urn:ioos:station:wmo:lopl1:1,2014-05-01T12:21:00Z,28.8850,-90.0250,10.0,14.3,2.0,16.4,'11111222,11111222,11111222' 
LOOP,urn:ioos:station:wmo:lopl1:1,2014-05-01T12:36:00Z,28.8850,-90.0250,10.0,13.8,8.0,16.5,'11111222,11111222,11111222' 
LOOP,urn:ioos:station:wmo:lopl1:1,2014-05-01T12:51:00Z,28.8850,-90.0250,10.0,14.1,352.0,16.5,'11111222,11111222,11111222' 
LOOP,urn:ioos:station:wmo:lopl1:1,2014-05-01T13:06:00Z,28.8850,-90.0250,10.0,14.7,357.0,16.5,'11111222,11111222,11111222' 
LOOP,urn:ioos:station:wmo:lopl1:1,2014-05-01T13:21:00Z,28.8850,-90.0250,10.0,12.7,353.0,15.4,'11111222,11111222,11111222' 
LOOP,urn:ioos:station:wmo:lopl1:1,2014-05-01T13:36:00Z,28.8850,-90.0250,10.0,13.3,8.0,16.0,'11111222,11111222,11111222' 
LOOP,urn:ioos:station:wmo:lopl1:1,2014-05-01T13:51:00Z,28.8850,-90.0250,10.0,13.7,9.0,15.5,'11111222,11111222,11111222' 
LOOP,urn:ioos:station:wmo:lopl1:1,2014-05-01T14:06:00Z,28.8850,-90.0250,10.0,12.8,6.0,14.6,'11111222,11111222,11111222' 
LOOP,urn:ioos:station:wmo:lopl1:1,2014-05-01T14:21:00Z,28.8850,-90.0250,10.0,12.9,7.0,14.5,'11111222,11111222,11111222' 
LOOP,urn:ioos:station:wmo:lopl1:1,2014-05-01T14:41:00Z,28.8850,-90.0250,10.0,12.4,8.0,14.0,'11111222,11111222,11111222' 
LOOP,urn:ioos:station:wmo:lopl1:1,2014-05-01T14:56:00Z,28.8850,-90.0250,10.0,11.3,14.0,13.1,'11111222,11111222,11111222' 
LOOP,urn:ioos:station:wmo:lopl1:1,2014-05-01T15:11:00Z,28.8850,-90.0250,10.0,11.4,17.0,13.7,'11111222,11111222,11111222' 
LOOP,urn:ioos:station:wmo:lopl1:1,2014-05-01T15:26:00Z,28.8850,-90.0250,10.0,11.5,16.0,14.5,'11111222,11111222,11111222' 
LOOP,urn:ioos:station:wmo:lopl1:1,2014-05-01T15:41:00Z,28.8850,-90.0250,10.0,11.1,30.0,13.2,'11111222,11111222,11111222' 
LOOP,urn:ioos:station:wmo:lopl1:1,2014-05-01T15:56:00Z,28.8850,-90.0250,10.0,10.6,29.0,12.8,'11111222,11111222,11111222' 
LOOP,urn:ioos:station:wmo:lopl1:1,2014-05-01T16:11:00Z,28.8850,-90.0250,10.0,10.5,20.0,13.5,'11111222,11111222,11111222' 
LOOP,urn:ioos:station:wmo:lopl1:1,2014-05-01T16:26:00Z,28.8850,-90.0250,10.0,9.8,22.0,12.4,'11111222,11111222,11111222' 
LOOP,urn:ioos:station:wmo:lopl1:1,2014-05-01T16:41:00Z,28.8850,-90.0250,10.0,10.6,15.0,11.9,'11111222,11111222,11111222' 
LOOP,urn:ioos:station:wmo:lopl1:1,2014-05-01T16:56:00Z,28.8850,-90.0250,10.0,9.6,22.0,12.1,'11111222,11111222,11111222' 
LOOP,urn:ioos:station:wmo:lopl1:1,2014-05-01T17:11:00Z,28.8850,-90.0250,10.0,7.9,24.0,9.8,'11111222,11111222,11111222' 
LOOP,urn:ioos:station:wmo:lopl1:1,2014-05-01T17:26:00Z,28.8850,-90.0250,10.0,8.8,12.0,11.1,'11111222,11111222,11111222' 
LOOP,urn:ioos:station:wmo:lopl1:1,2014-05-01T17:41:00Z,28.8850,-90.0250,10.0,9.2,19.0,11.3,'11111222,11111222,11111222' 
LOOP,urn:ioos:station:wmo:lopl1:1,2014-05-01T17:56:00Z,28.8850,-90.0250,10.0,8.5,25.0,10.1,'11111222,11111222,11111222' 
LOOP,urn:ioos:station:wmo:lopl1:1,2014-05-01T18:11:00Z,28.8850,-90.0250,10.0,9.0,18.0,11.1,'11111222,11111222,11111222' 
LOOP,urn:ioos:station:wmo:lopl1:1,2014-05-01T18:26:00Z,28.8850,-90.0250,10.0,7.6,27.0,10.4,'11111222,11111222,11111222' 
LOOP,urn:ioos:station:wmo:lopl1:1,2014-05-01T18:41:00Z,28.8850,-90.0250,10.0,7.0,18.0,10.1,'11111222,11111222,11111222' 
LOOP,urn:ioos:station:wmo:lopl1:1,2014-05-01T18:56:00Z,28.8850,-90.0250,10.0,5.8,51.0,8.4,'11111222,11111222,11111222' 
LOOP,urn:ioos:station:wmo:lopl1:1,2014-05-01T19:11:00Z,28.8850,-90.0250,10.0,6.5,33.0,8.7,'11111222,11111222,11111222' 
LOOP,urn:ioos:station:wmo:lopl1:1,2014-05-01T19:26:00Z,28.8850,-90.0250,10.0,6.1,18.0,9.6,'11111222,11111222,11111222' 
LOOP,urn:ioos:station:wmo:lopl1:1,2014-05-01T19:41:00Z,28.8850,-90.0250,10.0,5.7,43.0,8.2,'11111222,11111222,11111222' 
LOOP,urn:ioos:station:wmo:lopl1:1,2014-05-01T19:56:00Z,28.8850,-90.0250,10.0,5.0,66.0,7.0,'11111222,11111222,11111222' 
LOOP,urn:ioos:station:wmo:lopl1:1,2014-05-01T20:11:00Z,28.8850,-90.0250,10.0,5.6,71.0,7.4,'11111222,11111222,11111222' 
LOOP,urn:ioos:station:wmo:lopl1:1,2014-05-01T20:26:00Z,28.8850,-90.0250,10.0,5.4,44.0,7.6,'11111222,11111222,11111222' 
LOOP,urn:ioos:station:wmo:lopl1:1,2014-05-01T20:41:00Z,28.8850,-90.0250,10.0,5.1,63.0,6.5,'11111222,11111222,11111222' 
LOOP,urn:ioos:station:wmo:lopl1:1,2014-05-01T20:56:00Z,28.8850,-90.0250,10.0,5.9,56.0,7.8,'11111222,11111222,11111222' 
LOOP,urn:ioos:station:wmo:lopl1:1,2014-05-01T21:11:00Z,28.8850,-90.0250,10.0,5.3,63.0,7.6,'11111222,11111222,11111222' 
LOOP,urn:ioos:station:wmo:lopl1:1,2014-05-01T21:26:00Z,28.8850,-90.0250,10.0,5.1,66.0,6.6,'11111222,11111222,11111222' 
LOOP,urn:ioos:station:wmo:lopl1:1,2014-05-01T21:41:00Z,28.8850,-90.0250,10.0,4.4,52.0,6.4,'11111222,11111222,11111222' 
LOOP,urn:ioos:station:wmo:lopl1:1,2014-05-01T21:56:00Z,28.8850,-90.0250,10.0,4.2,62.0,6.3,'11111222,11111222,11111222' 
LOOP,urn:ioos:station:wmo:lopl1:1,2014-05-01T22:11:00Z,28.8850,-90.0250,10.0,4.2,34.0,6.2,'11111222,11111222,11111222' 
LOOP,urn:ioos:station:wmo:lopl1:1,2014-05-01T22:26:00Z,28.8850,-90.0250,10.0,3.5,36.0,4.8,'11111222,11111222,11111222' 
LOOP,urn:ioos:station:wmo:lopl1:1,2014-05-01T22:41:00Z,28.8850,-90.0250,10.0,3.8,40.0,5.4,'11111222,11111222,11111222' 
LOOP,urn:ioos:station:wmo:lopl1:1,2014-05-01T22:56:00Z,28.8850,-90.0250,10.0,3.7,12.0,5.2,'11111222,11111222,11111222' 
LOOP,urn:ioos:station:wmo:lopl1:1,2014-05-01T23:11:00Z,28.8850,-90.0250,10.0,2.5,21.0,4.7,'11111222,11111222,11111222' 
LOOP,urn:ioos:station:wmo:lopl1:1,2014-05-01T23:26:00Z,28.8850,-90.0250,10.0,1.8,17.0,2.8,'11111222,11111222,11111222' 
LOOP,urn:ioos:station:wmo:lopl1:1,2014-05-01T23:46:00Z,28.8850,-90.0250,10.0,3.8,16.0,4.8,'11111222,11111222,11111222' 
LOOP,urn:ioos:station:wmo:lopl1:1,2014-05-02T00:01:00Z,28.8850,-90.0250,10.0,2.2,20.0,3.2,'11111222,11111222,11111222' 
LOOP,urn:ioos:station:wmo:lopl1:1,2014-05-02T00:16:00Z,28.8850,-90.0250,10.0,2.1,355.0,3.5,'11111222,11111222,11111222' 
LOOP,urn:ioos:station:wmo:lopl1:1,2014-05-02T00:31:00Z,28.8850,-90.0250,10.0,1.8,12.0,2.8,'11111222,11111222,11111222' 
LOOP,urn:ioos:station:wmo:lopl1:1,2014-05-02T00:46:00Z,28.8850,-90.0250,10.0,0.6,333.0,1.8,'11111222,11111222,11111222' 
LOOP,urn:ioos:station:wmo:lopl1:1,2014-05-02T01:01:00Z,28.8850,-90.0250,10.0,2.3,352.0,3.4,'11111222,11111222,11111222' 
LOOP,urn:ioos:station:wmo:lopl1:1,2014-05-02T01:16:00Z,28.8850,-90.0250,10.0,3.1,3.0,4.3,'11111222,11111222,11111222' 
LOOP,urn:ioos:station:wmo:lopl1:1,2014-05-02T01:31:00Z,28.8850,-90.0250,10.0,3.3,6.0,4.3,'11111222,11111222,11111222' 
LOOP,urn:ioos:station:wmo:lopl1:1,2014-05-02T01:46:00Z,28.8850,-90.0250,10.0,1.4,308.0,2.7,'11111222,11111222,11111222' 
LOOP,urn:ioos:station:wmo:lopl1:1,2014-05-02T02:01:00Z,28.8850,-90.0250,10.0,1.5,305.0,2.7,'11111222,11111222,11111222' 
LOOP,urn:ioos:station:wmo:lopl1:1,2014-05-02T02:16:00Z,28.8850,-90.0250,10.0,0.7,31.0,1.2,'11111222,11111222,11111222' 
LOOP,urn:ioos:station:wmo:lopl1:1,2014-05-02T02:31:00Z,28.8850,-90.0250,10.0,1.5,96.0,2.4,'11111222,11111222,11111222' 
LOOP,urn:ioos:station:wmo:lopl1:1,2014-05-02T02:46:00Z,28.8850,-90.0250,10.0,1.7,66.0,2.5,'11111222,11111222,11111222' 
LOOP,urn:ioos:station:wmo:lopl1:1,2014-05-02T03:01:00Z,28.8850,-90.0250,10.0,2.6,77.0,3.6,'11111222,11111222,11111222' 
LOOP,urn:ioos:station:wmo:lopl1:1,2014-05-02T03:16:00Z,28.8850,-90.0250,10.0,3.5,88.0,4.4,'11111222,11111222,11111222' 
LOOP,urn:ioos:station:wmo:lopl1:1,2014-05-02T03:31:00Z,28.8850,-90.0250,10.0,4.4,84.0,5.1,'11111222,11111222,11111222' 
LOOP,urn:ioos:station:wmo:lopl1:1,2014-05-02T03:46:00Z,28.8850,-90.0250,10.0,3.3,93.0,4.7,'11111222,11111222,11111222' 
LOOP,urn:ioos:station:wmo:lopl1:1,2014-05-02T04:01:00Z,28.8850,-90.0250,10.0,2.4,83.0,3.3,'11111222,11111222,11111222' 
LOOP,urn:ioos:station:wmo:lopl1:1,2014-05-02T04:17:00Z,28.8850,-90.0250,10.0,2.7,75.0,2.7,'11111222,11111222,11111222' 
LOOP,urn:ioos:station:wmo:lopl1:1,2014-05-02T04:32:00Z,28.8850,-90.0250,10.0,3.1,67.0,3.8,'11111222,11111222,11111222' 
LOOP,urn:ioos:station:wmo:lopl1:1,2014-05-02T04:47:00Z,28.8850,-90.0250,10.0,2.4,14.0,3.7,'11111222,11111222,11111222' 
LOOP,urn:ioos:station:wmo:lopl1:1,2014-05-02T05:02:00Z,28.8850,-90.0250,10.0,3.0,1.0,4.4,'11111222,11111222,11111222' 
LOOP,urn:ioos:station:wmo:lopl1:1,2014-05-02T05:17:00Z,28.8850,-90.0250,10.0,3.4,17.0,4.3,'11111222,11111222,11111222' 
LOOP,urn:ioos:station:wmo:lopl1:1,2014-05-02T05:32:00Z,28.8850,-90.0250,10.0,2.6,16.0,3.5,'11111222,11111222,11111222' 
LOOP,urn:ioos:station:wmo:lopl1:1,2014-05-02T05:47:00Z,28.8850,-90.0250,10.0,2.5,39.0,3.5,'11111222,11111222,11111222' 
LOOP,urn:ioos:station:wmo:lopl1:1,2014-05-02T06:02:00Z,28.8850,-90.0250,10.0,2.3,44.0,3.2,'11111222,11111222,11111222' 
LOOP,urn:ioos:station:wmo:lopl1:1,2014-05-02T06:17:00Z,28.8850,-90.0250,10.0,2.9,15.0,4.3,'11111222,11111222,11111222' 
LOOP,urn:ioos:station:wmo:lopl1:1,2014-05-02T06:32:00Z,28.8850,-90.0250,10.0,2.3,30.0,3.3,'11111222,11111222,11111222' 
LOOP,urn:ioos:station:wmo:lopl1:1,2014-05-02T06:47:00Z,28.8850,-90.0250,10.0,3.6,347.0,4.8,'11111222,11111222,11111222' 
LOOP,urn:ioos:station:wmo:lopl1:1,2014-05-02T07:02:00Z,28.8850,-90.0250,10.0,3.2,6.0,4.3,'11111222,11111222,11111222' 
LOOP,urn:ioos:station:wmo:lopl1:1,2014-05-02T07:17:00Z,28.8850,-90.0250,10.0,2.3,31.0,3.1,'11111222,11111222,11111222' 
LOOP,urn:ioos:station:wmo:lopl1:1,2014-05-02T07:32:00Z,28.8850,-90.0250,10.0,2.4,20.0,3.3,'11111222,11111222,11111222' 
LOOP,urn:ioos:station:wmo:lopl1:1,2014-05-02T07:47:00Z,28.8850,-90.0250,10.0,3.0,12.0,3.7,'11111222,11111222,11111222' 
LOOP,urn:ioos:station:wmo:lopl1:1,2014-05-02T08:02:00Z,28.8850,-90.0250,10.0,2.5,20.0,3.2,'11111222,11111222,11111222' 
LOOP,urn:ioos:station:wmo:lopl1:1,2014-05-02T08:17:00Z,28.8850,-90.0250,10.0,2.8,354.0,4.0,'11111222,11111222,11111222' 
LOOP,urn:ioos:station:wmo:lopl1:1,2014-05-02T08:37:00Z,28.8850,-90.0250,10.0,2.9,344.0,4.2,'11111222,11111222,11111222' 
LOOP,urn:ioos:station:wmo:lopl1:1,2014-05-02T08:52:00Z,28.8850,-90.0250,10.0,3.8,346.0,5.8,'11111222,11111222,11111222' 
LOOP,urn:ioos:station:wmo:lopl1:1,2014-05-02T09:07:00Z,28.8850,-90.0250,10.0,5.5,351.0,6.8,'11111222,11111222,11111222' 
LOOP,urn:ioos:station:wmo:lopl1:1,2014-05-02T09:22:00Z,28.8850,-90.0250,10.0,5.9,351.0,7.2,'11111222,11111222,11111222' 
LOOP,urn:ioos:station:wmo:lopl1:1,2014-05-02T09:37:00Z,28.8850,-90.0250,10.0,5.8,356.0,6.7,'11111222,11111222,11111222' 
LOOP,urn:ioos:station:wmo:lopl1:1,2014-05-02T09:52:00Z,28.8850,-90.0250,10.0,6.7,0.0,8.1,'11111222,11111222,11111222' 
LOOP,urn:ioos:station:wmo:lopl1:1,2014-05-02T10:07:00Z,28.8850,-90.0250,10.0,6.1,349.0,7.3,'11111222,11111222,11111222' 
LOOP,urn:ioos:station:wmo:lopl1:1,2014-05-02T10:22:00Z,28.8850,-90.0250,10.0,6.0,5.0,7.2,'11111222,11111222,11111222' 
LOOP,urn:ioos:station:wmo:lopl1:1,2014-05-02T10:37:00Z,28.8850,-90.0250,10.0,6.8,9.0,8.7,'11111222,11111222,11111222' 
LOOP,urn:ioos:station:wmo:lopl1:1,2014-05-02T10:52:00Z,28.8850,-90.0250,10.0,7.4,18.0,9.1,'11111222,11111222,11111222' 
LOOP,urn:ioos:station:wmo:lopl1:1,2014-05-02T11:07:00Z,28.8850,-90.0250,10.0,7.4,7.0,9.6,'11111222,11111222,11111222' 
LOOP,urn:ioos:station:wmo:lopl1:1,2014-05-02T11:22:00Z,28.8850,-90.0250,10.0,8.0,13.0,9.2,'11111222,11111222,11111222' 
LOOP,urn:ioos:station:wmo:lopl1:1,2014-05-02T11:37:00Z,28.8850,-90.0250,10.0,8.2,16.0,9.9,'11111222,11111222,11111222' 
LOOP,urn:ioos:station:wmo:lopl1:1,2014-05-02T11:52:00Z,28.8850,-90.0250,10.0,8.3,13.0,9.6,'11111222,11111222,11111222' 
LOOP,urn:ioos:station:wmo:lopl1:1,2014-05-02T12:07:00Z,28.8850,-90.0250,10.0,7.7,22.0,8.9,'11111222,11111222,11111222' 
LOOP,urn:ioos:station:wmo:lopl1:1,2014-05-02T12:27:00Z,28.8850,-90.0250,10.0,6.8,23.0,8.4,'11111222,11111222,11111222' 
LOOP,urn:ioos:station:wmo:lopl1:1,2014-05-02T12:42:00Z,28.8850,-90.0250,10.0,7.4,12.0,9.3,'11111222,11111222,11111222' 
LOOP,urn:ioos:station:wmo:lopl1:1,2014-05-02T12:57:00Z,28.8850,-90.0250,10.0,7.7,15.0,9.0,'11111222,11111222,11111222' 
LOOP,urn:ioos:station:wmo:lopl1:1,2014-05-02T13:12:00Z,28.8850,-90.0250,10.0,7.8,18.0,9.3,'11111222,11111222,11111222' 
LOOP,urn:ioos:station:wmo:lopl1:1,2014-05-02T13:27:00Z,28.8850,-90.0250,10.0,7.7,18.0,9.5,'11111222,11111222,11111222' 
LOOP,urn:ioos:station:wmo:lopl1:1,2014-05-02T13:42:00Z,28.8850,-90.0250,10.0,7.8,21.0,9.3,'11111222,11111222,11111222' 
LOOP,urn:ioos:station:wmo:lopl1:1,2014-05-02T13:57:00Z,28.8850,-90.0250,10.0,8.3,18.0,9.8,'11111222,11111222,11111222' 
LOOP,urn:ioos:station:wmo:lopl1:1,2014-05-02T14:12:00Z,28.8850,-90.0250,10.0,8.0,23.0,9.6,'11111222,11111222,11111222' 
LOOP,urn:ioos:station:wmo:lopl1:1,2014-05-02T14:27:00Z,28.8850,-90.0250,10.0,7.8,20.0,10.4,'11111222,11111222,11111222' 
LOOP,urn:ioos:station:wmo:lopl1:1,2014-05-02T14:42:00Z,28.8850,-90.0250,10.0,7.6,17.0,9.2,'11111222,11111222,11111222' 
LOOP,urn:ioos:station:wmo:lopl1:1,2014-05-02T14:57:00Z,28.8850,-90.0250,10.0,9.0,11.0,10.0,'11111222,11111222,11111222' 
LOOP,urn:ioos:station:wmo:lopl1:1,2014-05-02T15:12:00Z,28.8850,-90.0250,10.0,8.7,17.0,10.2,'11111222,11111222,11111222' 
LOOP,urn:ioos:station:wmo:lopl1:1,2014-05-02T15:27:00Z,28.8850,-90.0250,10.0,8.2,11.0,9.9,'11111222,11111222,11111222' 
LOOP,urn:ioos:station:wmo:lopl1:1,2014-05-02T15:42:00Z,28.8850,-90.0250,10.0,8.0,14.0,10.0,'11111222,11111222,11111222' 
LOOP,urn:ioos:station:wmo:lopl1:1,2014-05-02T15:57:00Z,28.8850,-90.0250,10.0,8.3,15.0,9.2,'11111222,11111222,11111222' 
LOOP,urn:ioos:station:wmo:lopl1:1,2014-05-02T16:12:00Z,28.8850,-90.0250,10.0,7.3,9.0,8.2,'11111222,11111222,11111222' 
LOOP,urn:ioos:station:wmo:lopl1:1,2014-05-02T16:27:00Z,28.8850,-90.0250,10.0,6.9,10.0,8.0,'11111222,11111222,11111222' 
LOOP,urn:ioos:station:wmo:lopl1:1,2014-05-02T16:42:00Z,28.8850,-90.0250,10.0,6.6,17.0,7.7,'11111222,11111222,11111222' 
LOOP,urn:ioos:station:wmo:lopl1:1,2014-05-02T16:57:00Z,28.8850,-90.0250,10.0,6.1,10.0,7.5,'11111222,11111222,11111222' 
LOOP,urn:ioos:station:wmo:lopl1:1,2014-05-02T17:12:00Z,28.8850,-90.0250,10.0,6.3,3.0,7.6,'11111222,11111222,11111222' 
LOOP,urn:ioos:station:wmo:lopl1:1,2014-05-02T17:27:00Z,28.8850,-90.0250,10.0,7.6,12.0,8.9,'11111222,11111222,11111222' 
LOOP,urn:ioos:station:wmo:lopl1:1,2014-05-02T17:42:00Z,28.8850,-90.0250,10.0,6.6,20.0,8.1,'11111222,11111222,11111222' 
LOOP,urn:ioos:station:wmo:lopl1:1,2014-05-02T17:57:00Z,28.8850,-90.0250,10.0,6.9,11.0,8.4,'11111222,11111222,11111222' 
LOOP,urn:ioos:station:wmo:lopl1:1,2014-05-02T18:12:00Z,28.8850,-90.0250,10.0,7.9,41.0,10.2,'11111222,11111222,11111222' 
LOOP,urn:ioos:station:wmo:lopl1:1,2014-05-02T18:32:00Z,28.8850,-90.0250,10.0,5.3,48.0,7.7,'11111222,11111222,11111222' 
LOOP,urn:ioos:station:wmo:lopl1:1,2014-05-02T18:47:00Z,28.8850,-90.0250,10.0,4.7,67.0,6.2,'11111222,11111222,11111222' 
LOOP,urn:ioos:station:wmo:lopl1:1,2014-05-02T19:02:00Z,28.8850,-90.0250,10.0,3.4,51.0,5.1,'11111222,11111222,11111222' 
LOOP,urn:ioos:station:wmo:lopl1:1,2014-05-02T19:27:00Z,28.8850,-90.0250,10.0,3.4,49.0,5.0,'11111222,11111222,11111222' 
LOOP,urn:ioos:station:wmo:lopl1:1,2014-05-02T19:42:00Z,28.8850,-90.0250,10.0,3.7,30.0,5.2,'11111222,11111222,11111222' 
LOOP,urn:ioos:station:wmo:lopl1:1,2014-05-02T19:57:00Z,28.8850,-90.0250,10.0,2.8,41.0,4.8,'11111222,11111222,11111222' 
LOOP,urn:ioos:station:wmo:lopl1:1,2014-05-02T20:12:00Z,28.8850,-90.0250,10.0,2.5,45.0,3.6,'11111222,11111222,11111222' 
LOOP,urn:ioos:station:wmo:lopl1:1,2014-05-02T20:27:00Z,28.8850,-90.0250,10.0,2.3,19.0,3.3,'11111222,11111222,11111222' 
LOOP,urn:ioos:station:wmo:lopl1:1,2014-05-02T20:42:00Z,28.8850,-90.0250,10.0,4.9,65.0,6.0,'11111222,11111222,11111222' 
LOOP,urn:ioos:station:wmo:lopl1:1,2014-05-02T20:57:00Z,28.8850,-90.0250,10.0,4.2,46.0,5.6,'11111222,11111222,11111222' 
LOOP,urn:ioos:station:wmo:lopl1:1,2014-05-02T21:12:00Z,28.8850,-90.0250,10.0,3.9,37.0,5.5,'11111222,11111222,11111222' 
LOOP,urn:ioos:station:wmo:lopl1:1,2014-05-02T21:42:00Z,28.8850,-90.0250,10.0,2.8,30.0,4.3,'11111222,11111222,11111222' 
LOOP,urn:ioos:station:wmo:lopl1:1,2014-05-02T21:57:00Z,28.8850,-90.0250,10.0,3.4,24.0,5.0,'11111222,11111222,11111222' 
LOOP,urn:ioos:station:wmo:lopl1:1,2014-05-02T22:12:00Z,28.8850,-90.0250,10.0,3.2,39.0,4.5,'11111222,11111222,11111222' 
LOOP,urn:ioos:station:wmo:lopl1:1,2014-05-02T22:27:00Z,28.8850,-90.0250,10.0,3.0,33.0,4.4,'11111222,11111222,11111222' 
LOOP,urn:ioos:station:wmo:lopl1:1,2014-05-02T22:42:00Z,28.8850,-90.0250,10.0,2.7,19.0,4.0,'11111222,11111222,11111222' 
LOOP,urn:ioos:station:wmo:lopl1:1,2014-05-02T22:57:00Z,28.8850,-90.0250,10.0,2.8,13.0,5.0,'11111222,11111222,11111222' 
LOOP,urn:ioos:station:wmo:lopl1:1,2014-05-02T23:12:00Z,28.8850,-90.0250,10.0,2.6,50.0,4.1,'11111222,11111222,11111222' 
LOOP,urn:ioos:station:wmo:lopl1:1,2014-05-02T23:27:00Z,28.8850,-90.0250,10.0,2.7,63.0,4.4,'11111222,11111222,11111222' 
LOOP,urn:ioos:station:wmo:lopl1:1,2014-05-02T23:42:00Z,28.8850,-90.0250,10.0,3.4,38.0,4.8,'11111222,11111222,11111222' 
LOOP,urn:ioos:station:wmo:lopl1:1,2014-05-02T23:57:00Z,28.8850,-90.0250,10.0,2.7,35.0,4.3,'11111222,11111222,11111222' 
LOOP,urn:ioos:station:wmo:lopl1:1,2014-05-03T00:12:00Z,28.8850,-90.0250,10.0,3.4,32.0,4.6,'11111222,11111222,11111222' 
LOOP,urn:ioos:station:wmo:lopl1:1,2014-05-03T00:32:00Z,28.8850,-90.0250,10.0,3.4,32.0,4.9,'11111222,11111222,11111222' 
LOOP,urn:ioos:station:wmo:lopl1:1,2014-05-03T00:47:00Z,28.8850,-90.0250,10.0,3.5,23.0,4.9,'11111222,11111222,11111222' 
LOOP,urn:ioos:station:wmo:lopl1:1,2014-05-03T01:02:00Z,28.8850,-90.0250,10.0,2.9,62.0,3.9,'11111222,11111222,11111222' 
LOOP,urn:ioos:station:wmo:lopl1:1,2014-05-03T01:17:00Z,28.8850,-90.0250,10.0,1.9,29.0,2.6,'11111222,11111222,11111222' 
LOOP,urn:ioos:station:wmo:lopl1:1,2014-05-03T01:32:00Z,28.8850,-90.0250,10.0,3.4,31.0,4.5,'11111222,11111222,11111222' 
LOOP,urn:ioos:station:wmo:lopl1:1,2014-05-03T01:47:00Z,28.8850,-90.0250,10.0,3.2,28.0,4.6,'11111222,11111222,11111222' 
LOOP,urn:ioos:station:wmo:lopl1:1,2014-05-03T02:02:00Z,28.8850,-90.0250,10.0,2.4,15.0,3.6,'11111222,11111222,11111222' 
LOOP,urn:ioos:station:wmo:lopl1:1,2014-05-03T02:17:00Z,28.8850,-90.0250,10.0,2.4,356.0,3.7,'11111222,11111222,11111222' 
LOOP,urn:ioos:station:wmo:lopl1:1,2014-05-03T02:32:00Z,28.8850,-90.0250,10.0,1.7,343.0,3.9,'11111222,11111222,11111222' 